User: anonymous   Login
Location: Theydon Bois
(51.6750°N, 0.1050°E)
Time: 19:58:56
(UTC+00:00)
Language:

Cosmos 1766 - Orbit

View from above orbital plane
View from above orbital plane
View from above satellite
View from above satellite

Ground track
Ground track

The orbit data is extracted from the following two-line orbital elements,

1 16881U 86055A   17348.78799038 +.00000002 +00000-0 -17858-5 0  9999
2 16881 082.5061 206.9965 0016457 192.8348 167.2465 15.10351373687532
Epoch (UTC): 14 December 2017 18:54:42
Eccentricity: 0.0016457
inclination: 82.5061°
perigee height: 524 km
apogee height: 546 km
right ascension of ascending node: 206.9965°
argument of perigee: 192.8348°
revolutions per day: 15.10351373
mean anomaly at epoch: 167.2465°
orbit number at epoch: 68753

The dashed part of the orbit path shows where the satellite is in the earth's shadow,  

DLR